Regional Weather Roundup
Issued by NWS

Home | Current Version | Previous Version | Text Only | Print | Product List | Glossary On
Versions: 1 2 3 4 5 6 7 8 9 10 11 12 13 14 15 16 17 18 19 20 21 22 23 24 25 26 27 28 29 30 31 32 33 34 35 36 37 38 39 40 41 42 43 44 45 46 47 48 49 50
339
ASUS43 KMPX 241601
RWRMN
WEATHER ROUNDUP FOR MINNESOTA
NATIONAL WEATHER SERVICE TWIN CITIES/CHANHASSEN MN
1100 AM CDT MON JUL 24 2017


NOTE: "FAIR" INDICATES FEW OR NO CLOUDS BELOW 12,000 FEET WITH NO
SIGNIFICANT WEATHER AND/OR OBSTRUCTIONS TO VISIBILITY. N/A MEANS
CURRENT SKY AND/OR WEATHER CONDITIONS ARE NOT AVAILABLE.

MNZ060>063-068>070-241700-
   Twin Cities Metro

CITY           SKY/WX    TMP DP  RH WIND       PRES   REMARKS
TWIN CITIES    MOSUNNY   71  58  63 SE5       30.07S
ST PAUL        SUNNY     71  59  65 VRB3      30.07F
CRYSTAL        MOSUNNY   71  55  56 E3        30.04F
BLAINE         PTSUNNY   72  57  60 SE3       30.07S
LAKEVILLE      PTSUNNY   70  61  73 E6        30.07S
EDEN PRAIRIE   PTSUNNY   72  59  63 SE7       30.05F
SOUTH ST PAUL  MOSUNNY   71  56  59 E6        30.06F
LAKE ELMO      PTSUNNY   70  59  68 NE3       30.08F
$$
MNZ001>005-007-008-013>017-022>024-027-028-241700-
   Northwest Minnesota

CITY           SKY/WX    TMP DP  RH WIND       PRES   REMARKS
BEMIDJI        SUNNY     72  54  53 S7        30.04F
HALLOCK        SUNNY     73  64  73 S16       29.93F
ROSEAU         SUNNY     73  66  78 S16       29.98F
WARROAD        SUNNY     73  64  73 S6        29.99F
THIEF RVR FALL PTSUNNY   73  63  68 S14       30.00F
CROOKSTON      CLOUDY    73  63  68 S14G21    29.98F
FOSSTON        CLOUDY    72  61  68 S12       30.02F
DETROIT LAKES  CLOUDY    72  59  64 S12       30.03F
MOORHEAD       CLOUDY    72  61  68 S14       29.99F
PARK RAPIDS    SUNNY     70  58  65 S6        30.04F
MAHNOMEN       FAIR      72  60  66 S12       30.01F
$$
MNZ006-009>011-018-025>026-241700-
   North Central Minnesota

CITY           SKY/WX    TMP DP  RH WIND       PRES   REMARKS
BAUDETTE       MOSUNNY   74  60  61 S13       30.01F
FLAG ISLAND    MOSUNNY   73  63  68 S8        29.98F
INTL FALLS     SUNNY     73  55  53 SW7       30.05F
WASKISH        PTSUNNY   75  57  53 SE8       30.03F
BIG FORK       SUNNY     72  55  56 S5        30.07S
LONGVILLE      SUNNY     66  59  77 S6        30.06S
GRAND RAPIDS   SUNNY     65  57  75 S9        30.09F
CRANE LAKE     SUNNY     70  52  52 S5        30.09F
ORR            SUNNY     72  52  49 SE8       30.06F
COOK           SUNNY    N/A N/A N/A S7        30.09S
WALKER         FAIR      68  57  67 CALM      30.05S
$$
MNZ012-019>021-037-241700-
   Northeast Minnesota

CITY           SKY/WX    TMP DP  RH WIND       PRES   REMARKS
DULUTH         SUNNY     66  53  63 S7        30.09F
ELY            SUNNY     70  50  49 SW3       30.10S
HIBBING        SUNNY     69  52  54 SE10      30.08F
EVELETH        SUNNY     73  48  42 SE9       30.10S
DULUTH HARBOR  SUNNY     63  57  82 NE6       30.10F
TWO HARBORS    SUNNY     70  59  68 S3        30.08F
GRAND MARAIS     N/A     56  55  97 SW12      30.10R
G MARAIS ARPRT SUNNY     70  48  46 SW5       30.12F
$$
MNZ029>031-032-039>041-046>048-054>057-064-241700-
   West Central Minnesota

CITY           SKY/WX    TMP DP  RH WIND       PRES   REMARKS
FERGUS FALLS   CLOUDY    72  61  68 S12       30.01F
WHEATON        PTSUNNY   72  63  73 SE9       30.02S
MORRIS         CLOUDY    73  61  64 SE10      30.02R
ALEXANDRIA     CLOUDY    70  61  73 SE8       30.05F
ELBOW LAKE     FAIR      70  62  75 S10       30.03S
WADENA         CLOUDY    70  59  68 S5        30.04S
GLENWOOD       CLOUDY    72  59  64 SE8       30.05S
APPLETON       MOSUNNY   75  61  60 SE7       30.02S
BENSON         CLOUDY    72  61  68 S8        30.05S
ORTONVILLE     MOSUNNY   73  63  68 S9        30.01S
MADISON        MOSUNNY   75  63  64 S8        30.02S
WILLMAR        FAIR      70  61  73 SE7       30.06S
$$
MNZ033>034-036-042>043-049>051-058-059-241700-
   Central Minnesota

CITY           SKY/WX    TMP DP  RH WIND       PRES   REMARKS
ST CLOUD       CLOUDY    67  59  75 S3        30.06F
SAUK CENTRE    FAIR      67  60  76 SE9       30.06S
PAYNESVILLE    CLOUDY    69  59  69 SE7       30.06S
AITKIN         PTSUNNY   64  57  77 SE5       30.07S
PINE RIVER     SUNNY     68  57  68 S5        30.09S
BRAINERD       MOSUNNY   67  58  72 S6        30.07S
STAPLES        CLOUDY    68  57  68 S6        30.05S
LONG PRAIRIE   FAIR      66  59  77 E8        30.06S
LITTLE FALLS   CLOUDY    63  55  77 SE3       30.06F
LITCHFIELD     CLOUDY    72  61  68 E6        30.06S
BUFFALO        PTSUNNY   69  57  65 CALM      30.06F
MAPLE LAKE     CLOUDY    71  61  70 CALM      30.07F
HUTCHINSON     MOSUNNY   69  61  74 SE6       30.07S
$$
MNZ037-044-045-052-053-241700-
   East Central Minnesota

CITY           SKY/WX    TMP DP  RH WIND       PRES   REMARKS
PRINCETON      PTSUNNY   70  61  73 S3        30.06F
MORA           PTSUNNY   64  59  82 CALM      30.09F
CAMBRIDGE      PTSUNNY   72  57  60 E5        30.05F
RUSH CITY      PTSUNNY   65  59  78 CALM      30.08F
MOOSE LAKE     SUNNY     64  57  77 CALM      30.06F
HINCKLEY       CLOUDY    61  59  94 SE3       30.09F
CLOQUET        SUNNY     66  52  59 S5        30.08F
MCGREGOR       PTSUNNY   63  59  88 S5        30.08F
$$
MNZ071>073-080-081-089-090-097-098-241700-
   Southwest Minnesota

CITY           SKY/WX    TMP DP  RH WIND       PRES   REMARKS
MONTEVIDEO     PTSUNNY   75  63  64 S8        30.03S
GRANITE FALLS  MOSUNNY   72  61  69 E9        30.05F
CANBY          MOSUNNY   76  60  56 CALM      30.03S
MARSHALL       CLOUDY    73  62  68 SE13      30.03F
REDWOOD FALLS  CLOUDY    71  60  68 S8        30.04F
OLIVIA         MOSUNNY   70  61  73 S6        30.04F
PIPESTONE      MOSUNNY   73  63  68 S9        30.04F
WINDOM         SUNNY     72  61  68 SE3       30.05F
WORTHINGTON    SUNNY     72  62  71 S8        30.06F
JACKSON        MOSUNNY   70  59  68 CALM      30.07F
SLAYTON        HVY RAIN  70  61  73 SE7       30.06F
$$
MNZ065>067-074>077-082>085-091>093-241700-
   South Central Minnesota

CITY           SKY/WX    TMP DP  RH WIND       PRES   REMARKS
MANKATO        CLOUDY    68  59  73 SW3       30.07S
NEW ULM        MOSUNNY   70  57  64 S3        30.06S
ST JAMES       SUNNY     70  61  73 E3        30.07S
FAIRMONT       MOSUNNY   69  61  75 MISG      30.07S
GLENCOE        PTSUNNY   70  62  76 S6        30.06F
FARIBAULT      CLOUDY    68  59  73 SE5       30.08S
OWATONNA       PTSUNNY   70  61  73 CALM      30.07F
WASECA         CLOUDY    68  59  73 E5        30.08F
ALBERT LEA     CLOUDY    68  59  73 CALM      30.07S
$$
MNZ078>079-086>088-094>096-241700-
   Southeast Minnesota

CITY           SKY/WX    TMP DP  RH WIND       PRES   REMARKS
ROCHESTER      CLOUDY    68  60  75 NE6       30.09S
RED WING       SUNNY     72  55  56 SE7       30.06S
STANTON        CLOUDY    70  59  67 SE5       30.06F
DODGE CENTER   PTSUNNY   66  57  72 CALM      30.08S
WINONA         CLOUDY    63  55  77 SE6       30.10S
AUSTIN         PTSUNNY   68  59  73 E5        30.07S
PRESTON        CLOUDY    66  56  70 CALM      30.09S
$$
ABBREVIATIONS USED IN REMARKS
   TC - TEMPERATURES IN CELSIUS
  WCI - WIND CHILL INDEX
   HX - HEAT INDEX
  VSB - VISIBILITY
$$




USA.gov is the U.S. government's official web portal to all federal, state and local government web resources and services.